Other Public Products
Issued by NWS Grand Forks, ND

Home | Current Version | Previous Version | Text Only | Print | Product List | Glossary On
Versions: 1 2 3 4 5 6 7 8 9 10 11 12 13 14 15 16 17 18 19 20 21 22 23 24 25 26 27 28 29 30 31 32 33 34 35 36 37 38 39 40 41 42 43 44 45 46 47 48 49 50
000
FPUS83 KFGF 201731
OPUFGF
PRAIRIE TO PINES WEATHER ROUNDUP
NATIONAL WEATHER SERVICE EASTERN NORTH DAKOTA/GRAND FORKS ND
1100 AM CST SAT DEC 20 2014

 **SATELLITE DATA USED TO AUGMENT SKY COVER AT AUTOMATED STATIONS**
 *****  WEATHER ACROSS EASTERN NORTH DAKOTA  *****

CITY           SKY/WX    TMP DP  RH WIND       PRES   REMARKS
GRAND FORKS    FOG       26  26 100 S10       30.01R VSB 1   WCI  16
GRAND FORKS AF CLOUDY    26  26 100 SW10      30.00S FOG     WCI  16
GRAND CITY NWS   N/A     27 N/A N/A SW10        N/A  WCI  17
BUXTON           N/A     28  28  99 S12         N/A  WCI  18
DEVILS LAKE    CLOUDY    25  18  74 SE5       29.92F VSB 1/4 WCI  19
FARGO          CLOUDY    31  27  85 S17       30.02S FOG     WCI  19
WAHPETON ARPT  CLOUDY    30  28  93 S14       30.04S WCI  20
$$

 *****  WEATHER ACROSS CENTRAL AND WESTERN NORTH DAKOTA  *****

CITY           SKY/WX    TMP DP  RH WIND       PRES   REMARKS
JAMESTOWN      FOG       26  22  84 S9        29.94F VSB 1/2 WCI  17
BISMARCK       CLOUDY    18  16  92 E5        29.92S WCI  11
MINOT          CLOUDY    21  19  92 SE6       29.87S FOG     WCI  13
MINOT AFB      FRZ DRZL  21  21 100 SE7       29.85F FOG     WCI  13
GARRISON         N/A     22  19  89 SE3       29.87S
WILLISTON      SUNNY     26  23  88 S6        29.84S WCI  19
DICKINSON      MOSUNNY   39  27  62 W10       29.83S
HETTINGER      CLOUDY    36  27  69 W7        29.88S
$$

 *****  OTHER OBSERVATIONS NORTHEAST NORTH DAKOTA  *****

CITY           SKY/WX    TMP DP  RH WIND       PRES   REMARKS
WALHALLA         N/A     27  27 100 CALM      29.97F FOG
LANGDON        FOG       23  21  93 S7        29.92F VSB 1/4 WCI  15
CAVALIER       CLOUDY    28  27  93 S9        29.97F FOG     WCI  20
GRAFTON        NOT AVBL
CANDO          FOG       23  23 100 S6        29.94S VSB 1/4 WCI  16
FORT TOTTEN    NOT AVBL
ROLLA          FOG       21  21 100 S9        29.90F VSB<1/4 WCI  11
RUGBY          FOG       23  23 100 S7        29.92R VSB 1/4 WCI  15
 ***** THE ABOVE OBSERVATIONS ARE NON NWS ARE NOT QUALITY
        CONTROLLED AND MAY MIS-REPORT RAIN FOR SNOW...
$$

 *****  OTHER OBSERVATIONS SOUTHEAST NORTH DAKOTA *****

CITY           SKY/WX    TMP DP  RH WIND       PRES   REMARKS
COOPERSTOWN    NOT AVBL
VALLEY CITY    FOG       27  27 100 MISG      29.97F VSB 1/4
OAKES          FOG       27  27 100 S10       29.99F VSB 1/4 WCI  17
GWINNER        CLOUDY    30  30 100 MISG      30.01F VSB 3/4
SHEYENNE NWR     N/A     28  26  94 S7        29.95S WCI  21
BUFFALO        NOT AVBL
WYNDMERE         N/A     28  28 100 S8          N/A  WCI  20
 ***** THE ABOVE OBSERVATIONS ARE NON NWS ARE NOT QUALITY
       CONTROLLED AND MAY MIS-REPORT RAIN FOR SNOW...
$$

  *****  WEATHER ACROSS NORTHERN MINNESOTA  *****

CITY           SKY/WX    TMP DP  RH WIND       PRES   REMARKS
FLAG ISLAND    CLOUDY    28  27  93 S10       29.99F FOG     WCI  19
WARROAD        CLOUDY    28  25  86 S5        30.01F FOG     WCI  23
ROSEAU         CLOUDY    30  25  80 S9        30.00F HAZE    WCI  22
HALLOCK        CLOUDY    28  27  93 CALM      29.99F FOG
THF RVR FALLS  CLOUDY    28  28 100 S8        30.01S WCI  20
HALSTAD          N/A     30  27  88 SW14        N/A  WCI  19
FOSSTON        CLOUDY    28  27  93 S12       30.01F FOG     WCI  18
BAUDETTE       CLOUDY    30  28  92 S6        30.00F FOG     WCI  24
WASKISH        CLOUDY    30  30 100 CALM      30.02F FOG
CROOKSTON      CLOUDY    28  28 100 S13       30.02S FOG     WCI  18
$$
  *****  WEATHER ACROSS CENTRAL AND WEST MINNESOTA  *****

CITY           SKY/WX    TMP DP  RH WIND       PRES   REMARKS
BEMIDJI          N/A     29  28  96 SW8       30.02S FOG     WCI  21
PARK RAPIDS    CLOUDY    29  27  92 S13       30.03S FOG     WCI  19
WADENA         CLOUDY    28  27  93 S13       30.04F FOG     WCI  18
DETROIT LAKES  CLOUDY    30  30 100 S9        30.03S FOG     WCI  22
MOORHEAD       CLOUDY    30  30 100 S10       30.03S FOG     WCI  21
FERGUS FALLS   CLOUDY    30  28  93 S13       30.07F FOG     WCI  20
ELBOW LAKE     CLOUDY    30  28  94 S15       30.04F FOG     WCI  19
MORRIS MN      SUNNY     32  28  86 S14       30.05S FOG     WCI  22
STAPLES        CLOUDY    28  27  93 S13       30.06S FOG     WCI  18
WHEATON        CLOUDY    28  27  93 S9        30.06F FOG     WCI  20
$$
  *****  WEATHER ELSEWHERE ACROSS MINNESOTA  *****

CITY           SKY/WX    TMP DP  RH WIND       PRES   REMARKS
DULUTH         CLOUDY    28  24  85 S10       30.09F FOG     WCI  19
INTRNTL FALLS  CLOUDY    28  26  92 VRB5      30.04S FOG     WCI  23
ELY            CLOUDY    28  25  86 S8        30.07F WCI  20
CLOQUET        CLOUDY    28  25  86 SE3       30.09F FOG
BRAINERD       CLOUDY    30  28  92 SW13      30.07S FOG     WCI  20
HIBBING        CLOUDY    29  26  89 S5        30.07F FOG     WCI  24
ALEXANDRIA     CLOUDY    30  28  92 S10       30.06R FOG     WCI  21
SAINT CLOUD    CLOUDY    32  27  81 S17       30.11S WCI  21
MINNEAPOLIS    CLOUDY    31  27  85 S8        30.15S FOG     WCI  23
$$

  *****  WEATHER ACROSS SOUTH DAKOTA  *****

CITY           SKY/WX    TMP DP  RH WIND       PRES   REMARKS
SIOUX FALLS    CLOUDY    32  29  88 S9        30.06F WCI  24
BROOKINGS      NOT AVBL
WATERTOWN      CLOUDY    29  27  92 S15       30.01S FOG     WCI  18
HURON          FOG       26  26 100 S9        30.03S VSB 3/4 WCI  17
SISSETON         N/A     29  27  92 SW12      30.02F WCI  19
ABERDEEN       FOG       26  24  92 S12       30.01S VSB 1/2 WCI  16
MITCHELL       FOG       28  27  96 S14       30.05F VSB 1/4 WCI  17
PIERRE         CLOUDY    23  19  85 E6        29.96S FOG     WCI  16
MOBRIDGE       CLOUDY    26  22  84 SE9       29.91R WCI  17
RAPID CITY     CLOUDY    42  25  50 CALM      29.92R
$$

  *****  SOME WEATHER IN NEARBY STATES *****

CITY           SKY/WX    TMP DP  RH WIND       PRES   REMARKS
GLASGOW MT     MOSUNNY   33  27  78 W5        29.83R
GREAT FALLS MT CLOUDY    37  22  54 SW17G24   29.84F
CHEYENNE WY    PTSUNNY   37  20  50 W9        30.01F
SCOTTSBLUFF NE CLOUDY    27  22  81 CALM      29.99S
OMAHA NE       CLOUDY    33  31  92 S7        30.14S FOG
DES MOINES IA  CLOUDY    34  30  85 S6        30.18S FOG
DAVENPORT IA   CLOUDY    31  24  75 SE9       30.25F WCI  23
CHICAGO IL     CLOUDY    31  23  72 SW6       30.27F
EAU CLAIRE WI  CLOUDY    30  23  75 S7        30.18F WCI  23
LA CROSSE WI   CLOUDY    32  25  75 S7        30.21F
$$

  *****  SOME NATIONAL WEATHER *****

CITY           SKY/WX    TMP DP  RH WIND       PRES   REMARKS
LA GUARDIA NY  CLOUDY    31  20  63 NW9       30.29F WCI  23
RALEIGH NC     CLOUDY    36  30  80 NE5       30.28F FOG
ATLANTA GA     CLOUDY    50  45  81 CALM      30.19S
NEW ORLEANS LA CLOUDY    52  48  86 N15       30.16S
OKLAHOMA CITY  CLOUDY    44  36  73 S8        30.21F
ALBUQUERQUE NM PTSUNNY   33  26  75 CALM      30.19R
SALT LAKE CITY CLOUDY    40  33  76 SE6       30.10F
LOS ANGELES CA CLOUDY    54  47  77 E5        30.20R
BOISE ID       LGT RAIN  41  37  86 SE9       30.01S
SEATTLE WA     DRIZZLE   45  42  89 E10       29.63F FOG
$$

*** WEATHER ACROSS MANITOBA...SASKATCHEWAN AND ONTARIO ***
                ***ONTARIO***

CITY           SKY/WX    TMP DP  RH WIND       PRES   REMARKS
GERALDTON      CLOUDY    18  16  93 E2        30.17F
THUNDER BAY    LGT SNOW  28  27  93 NE2       30.18F
SIOUX LOOKOUT  FLURRIES  25  23  93 S8        30.04F WCI  16
TORONTO        MOSUNNY   28  19  69 N3        30.27F
BIG TROUT LK   CLOUDY    19  19 100 SE5       30.09F WCI  13
PICKLE LAKE    LGT SNOW  21  19  93 S7        30.07F WCI  13
DRYDEN         CLOUDY    25  25 100 S6        30.03F WCI  18
KENORA         FRZ DRZL  25  25 100 S6        30.00F VSB 1/2 WCI  18
$$
                *** MANITOBA***

CITY           SKY/WX    TMP DP  RH WIND       PRES   REMARKS
BRANDON        CLOUDY    25  23  93 SE5       29.93  WCI  19
DAUPHIN        CLOUDY    23  19  86 E5        29.93F WCI  17
ISLAND LAKE    FLURRIES  21  19  93 SE5       30.02F WCI  15
PILOT MOUND      N/A     21  21 100 S1          N/A
THE PAS        FRZ DRZL  18  18 100 SE14G22   29.90F FOG     WCI   4
THOMPSON       LGT SNOW  16  14  93 S8        29.96  WCI   5
WINNIPEG       FRZ DRZL  27  25  93 S9        29.99  FOG     WCI  17
LYNN LAKE      FLURRIES  12  12 100 S8        29.86F WCI   1
CHURCHILL      LGT SNOW  12  10  92 S8        30.01  WCI   1
GILLAM         LGT SNOW  16  14  93 S6        30.02  WCI   7
$$
                ***SASKATCHEWAN***

CITY           SKY/WX    TMP DP  RH WIND       PRES   REMARKS
ESTEVAN        LGT SNOW N/A N/A N/A SE8         N/A  FOG
KINDERSLEY     PTCLDY    18  16  93 W3        29.71R
LLOYDMINSTER   PTCLDY    18  16  93 W2        29.69
PRINCE ALBERT  FLURRIES  18  16  93 E8        29.77  WCI   7
REGINA         LGTSLEET  23  23 100 SE13      29.75S FOG     WCI  11



USA.gov is the U.S. government's official web portal to all federal, state and local government web resources and services.